カタログに戻る

GLOBALSTAR M100

運用中通信LEO
NORAD 100332·PAYLOAD·🇺🇸 United States

打ち上げ Aug 16, 2026 から Cape Canaveral Space Force Station

Loading…

次のパス (今後24時間)

TLE

最新Source: Space-Track

元期: Sep 14, 2026, 14:29 UTC

1 A0332U 26185H   26257.60380462  .00000223  00000-0  78983-4 0  9997
2 A0332  51.9953 110.8820 0008603 327.7685  32.2745 14.64001229  4328

AllMySatでGLOBALSTAR M100をリアルタイム追跡

Download on the App Store